Time,TemperatureF,DewpointF,PressureIn,WindDirection,WindDirectionDegrees,WindSpeedMPH,WindSpeedGustMPH,Humidity,HourlyPrecipIn,Conditions,Clouds,dailyrainin,SoftwareType,DateUTC
2013-03-19 00:00:00,35.4,16.5,30.00,NW,321,0.0,0.0,46,0.00,,,0.00,WUHU216WMR968SP,2013-03-19 07:00:00,
2013-03-19 00:05:00,35.4,17.1,30.00,NW,321,0.0,0.0,47,0.00,,,0.00,WUHU216WMR968SP,2013-03-19 07:05:00,
2013-03-19 00:10:00,35.1,16.8,30.00,NW,321,0.0,0.0,47,0.00,,,0.00,WUHU216WMR968SP,2013-03-19 07:10:00,
2013-03-19 00:15:00,34.9,16.6,30.00,NW,321,0.0,0.0,47,0.00,,,0.00,WUHU216WMR968SP,2013-03-19 07:15:00,
2013-03-19 00:20:00,34.9,16.6,30.00,NW,321,0.0,0.0,47,0.00,,,0.00,WUHU216WMR968SP,2013-03-19 07:20:00,
2013-03-19 00:25:00,34.7,16.4,30.00,NW,321,0.0,0.0,47,0.00,,,0.00,WUHU216WMR968SP,2013-03-19 07:25:00,
2013-03-19 00:30:00,34.5,16.7,30.00,NW,321,0.0,0.0,48,0.00,,,0.00,WUHU216WMR968SP,2013-03-19 07:30:00,
2013-03-19 00:35:00,34.5,16.7,30.00,NW,321,0.0,0.0,48,0.00,,,0.00,WUHU216WMR968SP,2013-03-19 07:35:00,
2013-03-19 00:40:00,34.3,16.5,30.00,NW,321,0.0,0.0,48,0.00,,,0.00,WUHU216WMR968SP,2013-03-19 07:40:00,
2013-03-19 00:45:00,34.2,16.9,30.00,NW,321,0.0,0.0,49,0.00,,,0.00,WUHU216WMR968SP,2013-03-19 07:45:00,
2013-03-19 00:50:00,34.0,16.8,30.00,NW,321,0.0,0.0,49,0.00,,,0.00,WUHU216WMR968SP,2013-03-19 07:50:00,
2013-03-19 00:55:00,34.0,16.8,30.00,NW,321,0.0,0.0,49,0.00,,,0.00,WUHU216WMR968SP,2013-03-19 07:55:00,
2013-03-19 01:00:00,34.0,17.2,30.00,NW,321,0.0,0.0,50,0.00,,,0.00,WUHU216WMR968SP,2013-03-19 08:00:00,
2013-03-19 01:05:00,33.8,17.1,30.00,NW,321,0.0,0.0,50,0.00,,,0.00,WUHU216WMR968SP,2013-03-19 08:05:00,
2013-03-19 01:10:00,33.8,17.1,30.00,NW,321,0.0,0.0,50,0.00,,,0.00,WUHU216WMR968SP,2013-03-19 08:10:00,
2013-03-19 01:15:00,33.8,17.1,29.97,NW,321,0.0,0.0,50,0.00,,,0.00,WUHU216WMR968SP,2013-03-19 08:15:00,
2013-03-19 01:20:00,33.8,17.1,29.97,NW,321,0.0,0.0,50,0.00,,,0.00,WUHU216WMR968SP,2013-03-19 08:20:00,
2013-03-19 01:25:00,33.8,17.1,29.97,NW,321,0.0,0.0,50,0.00,,,0.00,WUHU216WMR968SP,2013-03-19 08:25:00,
2013-03-19 01:30:00,33.8,17.5,29.97,NW,321,0.0,0.0,51,0.00,,,0.00,WUHU216WMR968SP,2013-03-19 08:30:00,
2013-03-19 01:35:00,33.8,17.5,29.97,NW,321,0.0,0.0,51,0.00,,,0.00,WUHU216WMR968SP,2013-03-19 08:35:00,
2013-03-19 01:40:00,34.0,17.7,29.97,NW,321,0.0,0.0,51,0.00,,,0.00,WUHU216WMR968SP,2013-03-19 08:40:00,
2013-03-19 01:45:00,34.0,17.7,29.97,NW,321,0.0,0.0,51,0.00,,,0.00,WUHU216WMR968SP,2013-03-19 08:45:00,
2013-03-19 01:50:00,34.0,18.2,29.97,NW,321,0.0,0.0,52,0.00,,,0.00,WUHU216WMR968SP,2013-03-19 08:50:00,
2013-03-19 01:55:00,34.0,18.2,29.97,NW,321,0.0,0.0,52,0.00,,,0.00,WUHU216WMR968SP,2013-03-19 08:55:00,
2013-03-19 02:00:00,34.2,18.4,29.97,NW,321,0.0,0.0,52,0.00,,,0.00,WUHU216WMR968SP,2013-03-19 09:00:00,
2013-03-19 02:05:00,34.2,18.8,29.97,NW,321,0.0,0.0,53,0.00,,,0.00,WUHU216WMR968SP,2013-03-19 09:05:00,
2013-03-19 02:10:00,34.3,18.9,29.97,NW,321,0.0,0.0,53,0.00,,,0.00,WUHU216WMR968SP,2013-03-19 09:10:00,
2013-03-19 02:15:00,34.3,18.9,29.97,NW,321,0.0,0.0,53,0.00,,,0.00,WUHU216WMR968SP,2013-03-19 09:15:00,
2013-03-19 02:20:00,34.3,18.9,29.97,NW,321,0.0,0.0,53,0.00,,,0.00,WUHU216WMR968SP,2013-03-19 09:20:00,
2013-03-19 02:25:00,34.5,19.1,29.97,NW,321,0.0,0.0,53,0.00,,,0.00,WUHU216WMR968SP,2013-03-19 09:25:00,
2013-03-19 02:30:00,34.5,19.1,29.97,NW,321,0.0,0.0,53,0.00,,,0.00,WUHU216WMR968SP,2013-03-19 09:30:00,
2013-03-19 02:35:00,34.5,19.6,29.97,NW,321,0.0,0.0,54,0.00,,,0.00,WUHU216WMR968SP,2013-03-19 09:35:00,
2013-03-19 02:40:00,34.5,19.6,29.97,NW,321,0.0,0.0,54,0.00,,,0.00,WUHU216WMR968SP,2013-03-19 09:40:00,
2013-03-19 02:45:00,34.7,19.7,29.97,NW,321,0.0,0.0,54,0.00,,,0.00,WUHU216WMR968SP,2013-03-19 09:45:00,
2013-03-19 02:50:00,34.9,20.4,29.97,NW,321,0.0,0.0,55,0.00,,,0.00,WUHU216WMR968SP,2013-03-19 09:50:00,
2013-03-19 03:36:00,35.2,21.1,29.97,NW,321,0.0,0.0,56,0.00,,,0.00,WUHU216WMR968SP,2013-03-19 10:36:00,
2013-03-19 03:41:00,35.4,21.3,29.97,NW,321,0.0,0.0,56,0.00,,,0.00,WUHU216WMR968SP,2013-03-19 10:41:00,
2013-03-19 03:46:00,35.4,21.3,29.94,NW,321,0.0,0.0,56,0.00,,,0.00,WUHU216WMR968SP,2013-03-19 10:46:00,
2013-03-19 03:51:00,35.2,21.5,29.94,NW,321,0.0,0.0,57,0.00,,,0.00,WUHU216WMR968SP,2013-03-19 10:51:00,
2013-03-19 03:56:00,35.2,21.5,29.94,NW,321,0.0,0.0,57,0.00,,,0.00,WUHU216WMR968SP,2013-03-19 10:56:00,
2013-03-19 04:01:00,35.2,21.5,29.94,NW,321,0.0,0.0,57,0.00,,,0.00,WUHU216WMR968SP,2013-03-19 11:01:00,
2013-03-19 04:06:00,35.2,21.5,29.94,NW,321,0.0,0.0,57,0.00,,,0.00,WUHU216WMR968SP,2013-03-19 11:06:00,
2013-03-19 04:11:00,35.2,21.5,29.94,NW,321,0.0,0.0,57,0.00,,,0.00,WUHU216WMR968SP,2013-03-19 11:11:00,
2013-03-19 04:16:00,35.2,21.5,29.94,NW,321,0.0,0.0,57,0.00,,,0.00,WUHU216WMR968SP,2013-03-19 11:16:00,
2013-03-19 04:21:00,35.2,21.9,29.94,NW,321,0.0,0.0,58,0.00,,,0.00,WUHU216WMR968SP,2013-03-19 11:21:00,
2013-03-19 04:26:00,35.4,22.1,29.94,NW,321,0.0,0.0,58,0.00,,,0.00,WUHU216WMR968SP,2013-03-19 11:26:00,
2013-03-19 04:31:00,35.4,22.1,29.94,NW,321,0.0,0.0,58,0.00,,,0.00,WUHU216WMR968SP,2013-03-19 11:31:00,
2013-03-19 04:36:00,35.4,22.1,29.94,NW,321,0.0,0.0,58,0.00,,,0.00,WUHU216WMR968SP,2013-03-19 11:36:00,
2013-03-19 04:41:00,35.4,22.1,29.94,NW,321,0.0,0.0,58,0.00,,,0.00,WUHU216WMR968SP,2013-03-19 11:41:00,
2013-03-19 04:46:00,35.4,22.5,29.94,NW,321,0.0,0.0,59,0.00,,,0.00,WUHU216WMR968SP,2013-03-19 11:46:00,
2013-03-19 04:51:00,35.6,22.3,29.94,NW,321,0.0,0.0,58,0.00,,,0.00,WUHU216WMR968SP,2013-03-19 11:51:00,
2013-03-19 04:56:00,35.6,22.3,29.94,NW,321,0.0,0.0,58,0.00,,,0.00,WUHU216WMR968SP,2013-03-19 11:56:00,
2013-03-19 05:01:00,35.6,22.3,29.94,NW,321,0.0,0.0,58,0.00,,,0.00,WUHU216WMR968SP,2013-03-19 12:01:00,
2013-03-19 05:06:00,35.6,22.3,29.94,NW,321,0.0,0.0,58,0.00,,,0.00,WUHU216WMR968SP,2013-03-19 12:06:00,
2013-03-19 05:11:00,35.4,22.5,29.94,NW,321,0.0,0.0,59,0.00,,,0.00,WUHU216WMR968SP,2013-03-19 12:11:00,
2013-03-19 05:16:00,35.4,22.5,29.94,NW,321,0.0,0.0,59,0.00,,,0.00,WUHU216WMR968SP,2013-03-19 12:16:00,
2013-03-19 05:21:00,35.4,22.5,29.94,NW,321,0.0,0.0,59,0.00,,,0.00,WUHU216WMR968SP,2013-03-19 12:21:00,
2013-03-19 05:26:00,35.4,22.5,29.94,NW,321,0.0,0.0,59,0.00,,,0.00,WUHU216WMR968SP,2013-03-19 12:26:00,
2013-03-19 05:31:00,35.4,22.5,29.94,NW,321,0.0,0.0,59,0.00,,,0.00,WUHU216WMR968SP,2013-03-19 12:31:00,
2013-03-19 05:36:00,35.4,22.5,29.94,NW,321,0.0,0.0,59,0.00,,,0.00,WUHU216WMR968SP,2013-03-19 12:36:00,
2013-03-19 05:41:00,35.4,22.9,29.94,NW,321,0.0,0.0,60,0.00,,,0.00,WUHU216WMR968SP,2013-03-19 12:41:00,
2013-03-19 05:46:00,35.6,23.1,29.94,NW,321,0.0,0.0,60,0.00,,,0.00,WUHU216WMR968SP,2013-03-19 12:46:00,
2013-03-19 05:51:00,35.6,23.1,29.94,NW,321,0.0,0.0,60,0.00,,,0.00,WUHU216WMR968SP,2013-03-19 12:51:00,
2013-03-19 05:56:00,35.6,23.1,29.94,NW,321,0.0,0.0,60,0.00,,,0.00,WUHU216WMR968SP,2013-03-19 12:56:00,
2013-03-19 06:01:00,35.6,23.1,29.94,NW,321,0.0,0.0,60,0.00,,,0.00,WUHU216WMR968SP,2013-03-19 13:01:00,
2013-03-19 06:06:00,35.6,23.1,29.94,NW,321,0.0,0.0,60,0.00,,,0.00,WUHU216WMR968SP,2013-03-19 13:06:00,
2013-03-19 06:11:00,35.6,23.1,29.94,NW,321,0.0,0.0,60,0.00,,,0.00,WUHU216WMR968SP,2013-03-19 13:11:00,
2013-03-19 06:16:00,35.8,23.3,29.94,NW,321,0.0,0.0,60,0.00,,,0.00,WUHU216WMR968SP,2013-03-19 13:16:00,
2013-03-19 06:21:00,35.8,23.3,29.94,NW,321,0.0,0.0,60,0.00,,,0.00,WUHU216WMR968SP,2013-03-19 13:21:00,
2013-03-19 06:26:00,35.8,23.3,29.94,NW,321,0.0,0.0,60,0.00,,,0.00,WUHU216WMR968SP,2013-03-19 13:26:00,
2013-03-19 06:31:00,35.8,23.3,29.94,NW,321,0.0,0.0,60,0.00,,,0.00,WUHU216WMR968SP,2013-03-19 13:31:00,
2013-03-19 06:36:00,35.8,23.3,29.94,NW,321,0.0,0.0,60,0.00,,,0.00,WUHU216WMR968SP,2013-03-19 13:36:00,
2013-03-19 06:41:00,35.8,23.7,29.94,NW,321,0.0,0.0,61,0.00,,,0.00,WUHU216WMR968SP,2013-03-19 13:41:00,
2013-03-19 06:46:00,36.0,23.9,29.94,NW,321,0.0,0.0,61,0.00,,,0.00,WUHU216WMR968SP,2013-03-19 13:46:00,
2013-03-19 06:51:00,36.0,23.9,29.94,NW,321,0.0,0.0,61,0.00,,,0.00,WUHU216WMR968SP,2013-03-19 13:51:00,
2013-03-19 06:56:00,36.0,23.9,29.94,NW,321,0.0,0.0,61,0.00,,,0.00,WUHU216WMR968SP,2013-03-19 13:56:00,
2013-03-19 07:01:00,36.1,24.0,29.91,NW,321,0.0,0.0,61,0.00,,,0.00,WUHU216WMR968SP,2013-03-19 14:01:00,
2013-03-19 07:06:00,36.1,24.4,29.91,NW,321,0.0,0.0,62,0.00,,,0.00,WUHU216WMR968SP,2013-03-19 14:06:00,
2013-03-19 07:11:00,36.3,24.6,29.91,NW,321,0.0,0.0,62,0.00,,,0.00,WUHU216WMR968SP,2013-03-19 14:11:00,
2013-03-19 07:16:00,36.3,25.0,29.94,NW,321,0.0,0.0,63,0.00,,,0.00,WUHU216WMR968SP,2013-03-19 14:16:00,
2013-03-19 07:21:00,36.5,25.2,29.94,NW,321,0.0,0.0,63,0.00,,,0.00,WUHU216WMR968SP,2013-03-19 14:21:00,
2013-03-19 07:26:00,36.7,25.4,29.94,NW,321,0.0,0.0,63,0.00,,,0.00,WUHU216WMR968SP,2013-03-19 14:26:00,
2013-03-19 07:31:00,36.7,25.4,29.94,NW,321,0.0,0.0,63,0.00,,,0.00,WUHU216WMR968SP,2013-03-19 14:31:00,
2013-03-19 07:36:00,36.7,25.4,29.94,NW,321,0.0,0.0,63,0.00,,,0.00,WUHU216WMR968SP,2013-03-19 14:36:00,
2013-03-19 07:41:00,36.9,25.5,29.94,NW,321,0.0,0.0,63,0.00,,,0.00,WUHU216WMR968SP,2013-03-19 14:41:00,
2013-03-19 07:46:00,36.9,25.5,29.94,NW,321,0.0,0.0,63,0.00,,,0.00,WUHU216WMR968SP,2013-03-19 14:46:00,
2013-03-19 07:51:00,37.0,25.6,29.94,NW,321,0.0,0.0,63,0.00,,,0.00,WUHU216WMR968SP,2013-03-19 14:51:00,
2013-03-19 07:56:00,37.2,25.8,29.94,NW,321,0.0,0.0,63,0.00,,,0.00,WUHU216WMR968SP,2013-03-19 14:56:00,
2013-03-19 08:01:00,37.4,26.0,29.94,NW,321,0.0,0.0,63,0.00,,,0.00,WUHU216WMR968SP,2013-03-19 15:01:00,
2013-03-19 08:06:00,37.6,26.2,29.94,NW,321,0.0,0.0,63,0.00,,,0.00,WUHU216WMR968SP,2013-03-19 15:06:00,
2013-03-19 08:11:00,37.8,26.4,29.94,NW,321,0.0,0.0,63,0.00,,,0.00,WUHU216WMR968SP,2013-03-19 15:11:00,
2013-03-19 08:16:00,37.9,26.5,29.94,NW,321,0.0,0.0,63,0.00,,,0.00,WUHU216WMR968SP,2013-03-19 15:16:00,
2013-03-19 08:21:00,38.1,26.7,29.94,NW,321,0.0,0.0,63,0.00,,,0.00,WUHU216WMR968SP,2013-03-19 15:21:00,
2013-03-19 08:26:00,38.5,27.1,29.94,NW,321,0.0,0.0,63,0.00,,,0.00,WUHU216WMR968SP,2013-03-19 15:26:00,
2013-03-19 08:32:00,38.8,27.4,29.94,NW,321,0.0,0.0,63,0.00,,,0.00,WUHU216WMR968SP,2013-03-19 15:32:00,
2013-03-19 08:37:00,39.2,27.3,29.94,NW,321,0.0,0.0,62,0.00,,,0.00,WUHU216WMR968SP,2013-03-19 15:37:00,
2013-03-19 08:42:00,39.4,27.1,29.94,NW,321,0.0,0.0,61,0.00,,,0.00,WUHU216WMR968SP,2013-03-19 15:42:00,
2013-03-19 08:47:00,39.7,27.0,29.94,NW,321,0.0,0.0,60,0.00,,,0.00,WUHU216WMR968SP,2013-03-19 15:47:00,
2013-03-19 08:52:00,40.1,26.5,29.94,NW,321,0.0,0.0,58,0.00,,,0.00,WUHU216WMR968SP,2013-03-19 15:52:00,
2013-03-19 08:57:00,40.3,25.9,29.94,NW,321,0.0,0.0,56,0.00,,,0.00,WUHU216WMR968SP,2013-03-19 15:57:00,
2013-03-19 09:02:00,40.5,25.2,29.91,NW,321,0.0,0.0,54,0.00,,,0.00,WUHU216WMR968SP,2013-03-19 16:02:00,
2013-03-19 09:07:00,40.8,25.0,29.91,NW,321,0.0,0.0,53,0.00,,,0.00,WUHU216WMR968SP,2013-03-19 16:07:00,
2013-03-19 09:12:00,41.0,24.2,29.91,NW,321,0.0,0.0,51,0.00,,,0.00,WUHU216WMR968SP,2013-03-19 16:12:00,
2013-03-19 09:17:00,41.4,24.1,29.91,NW,321,0.0,0.0,50,0.00,,,0.00,WUHU216WMR968SP,2013-03-19 16:17:00,
2013-03-19 09:22:00,41.5,23.7,29.91,NW,321,0.0,0.0,49,0.00,,,0.00,WUHU216WMR968SP,2013-03-19 16:22:00,
2013-03-19 09:27:00,41.5,20.5,29.91,South,171,3.6,4.0,43,0.00,,,0.00,WUHU216WMR968SP,2013-03-19 16:27:00,
2013-03-19 09:32:00,41.7,20.7,29.91,WNW,299,0.0,4.0,43,0.00,,,0.00,WUHU216WMR968SP,2013-03-19 16:32:00,
2013-03-19 09:37:00,41.9,19.7,29.91,WNW,297,0.0,3.6,41,0.00,,,0.00,WUHU216WMR968SP,2013-03-19 16:37:00,
2013-03-19 09:42:00,42.1,19.9,29.91,WNW,303,0.0,3.1,41,0.00,,,0.00,WUHU216WMR968SP,2013-03-19 16:42:00,
2013-03-19 09:47:00,42.4,20.2,29.91,NW,304,0.0,0.0,41,0.00,,,0.00,WUHU216WMR968SP,2013-03-19 16:47:00,
2013-03-19 09:52:00,42.6,19.8,29.91,SW,221,0.0,0.0,40,0.00,,,0.00,WUHU216WMR968SP,2013-03-19 16:52:00,
2013-03-19 09:57:00,42.8,19.3,29.91,SW,221,0.0,0.0,39,0.00,,,0.00,WUHU216WMR968SP,2013-03-19 16:57:00,
2013-03-19 10:03:00,43.0,19.5,29.91,SW,221,0.0,0.0,39,0.00,,,0.00,WUHU216WMR968SP,2013-03-19 17:03:00,
2013-03-19 10:08:00,43.3,19.8,29.91,SW,221,0.0,0.0,39,0.00,,,0.00,WUHU216WMR968SP,2013-03-19 17:08:00,
2013-03-19 10:13:00,43.7,20.1,29.91,SW,221,0.0,0.0,39,0.00,,,0.00,WUHU216WMR968SP,2013-03-19 17:13:00,
2013-03-19 10:18:00,44.1,20.5,29.91,SW,221,0.0,3.6,39,0.00,,,0.00,WUHU216WMR968SP,2013-03-19 17:18:00,
2013-03-19 10:23:00,44.8,20.5,29.91,SW,221,2.2,3.6,38,0.00,,,0.00,WUHU216WMR968SP,2013-03-19 17:23:00,
2013-03-19 10:28:00,45.3,20.3,29.91,SW,222,0.0,2.7,37,0.00,,,0.00,WUHU216WMR968SP,2013-03-19 17:28:00,
2013-03-19 10:33:00,45.7,20.0,29.91,SW,221,0.0,3.1,36,0.00,,,0.00,WUHU216WMR968SP,2013-03-19 17:33:00,
2013-03-19 10:38:00,46.2,21.1,29.91,SW,224,0.0,3.1,37,0.00,,,0.00,WUHU216WMR968SP,2013-03-19 17:38:00,
2013-03-19 10:43:00,46.8,19.0,29.91,SW,222,0.0,2.2,33,0.00,,,0.00,WUHU216WMR968SP,2013-03-19 17:43:00,
2013-03-19 10:48:00,46.9,18.3,29.88,SW,222,0.0,0.0,32,0.00,,,0.00,WUHU216WMR968SP,2013-03-19 17:48:00,
2013-03-19 10:52:00,47.3,17.9,29.88,SW,222,0.0,0.0,31,0.00,,,0.00,WUHU216WMR968SP,2013-03-19 17:52:00,
2013-03-19 10:57:00,47.5,18.1,29.88,SW,222,0.0,0.0,31,0.00,,,0.00,WUHU216WMR968SP,2013-03-19 17:57:00,
2013-03-19 11:02:00,47.5,18.1,29.88,SW,222,0.0,0.0,31,0.00,,,0.00,WUHU216WMR968SP,2013-03-19 18:02:00,
2013-03-19 11:07:00,47.8,18.4,29.88,SW,222,0.0,0.0,31,0.00,,,0.00,WUHU216WMR968SP,2013-03-19 18:07:00,
2013-03-19 11:12:00,48.6,18.3,29.88,SW,223,0.0,0.0,30,0.00,,,0.00,WUHU216WMR968SP,2013-03-19 18:12:00,
2013-03-19 11:17:00,48.6,18.3,29.88,SW,222,0.0,0.0,30,0.00,,,0.00,WUHU216WMR968SP,2013-03-19 18:17:00,
2013-03-19 11:22:00,48.6,17.5,29.88,SW,222,0.0,0.0,29,0.00,,,0.00,WUHU216WMR968SP,2013-03-19 18:22:00,
2013-03-19 11:27:00,48.7,17.6,29.88,SW,222,0.0,0.0,29,0.00,,,0.00,WUHU216WMR968SP,2013-03-19 18:27:00,
2013-03-19 11:32:00,48.7,16.8,29.88,SW,223,0.0,0.0,28,0.00,,,0.00,WUHU216WMR968SP,2013-03-19 18:32:00,
2013-03-19 11:38:00,48.9,17.0,29.88,SW,222,0.0,0.0,28,0.00,,,0.00,WUHU216WMR968SP,2013-03-19 18:38:00,
2013-03-19 11:43:00,49.3,17.3,29.88,SW,222,0.0,0.0,28,0.00,,,0.00,WUHU216WMR968SP,2013-03-19 18:43:00,
2013-03-19 11:48:00,49.8,17.8,29.88,NNW,344,0.0,2.7,28,0.00,,,0.00,WUHU216WMR968SP,2013-03-19 18:48:00,
2013-03-19 11:53:00,50.2,17.3,29.88,NNW,344,0.0,2.7,27,0.00,,,0.00,WUHU216WMR968SP,2013-03-19 18:53:00,
2013-03-19 11:58:00,50.4,17.5,29.88,North,350,0.0,0.0,27,0.00,,,0.00,WUHU216WMR968SP,2013-03-19 18:58:00,
2013-03-19 12:03:00,50.7,18.6,29.88,North,350,0.0,0.0,28,0.00,,,0.00,WUHU216WMR968SP,2013-03-19 19:03:00,
2013-03-19 12:08:00,50.7,18.6,29.88,North,350,0.0,0.0,28,0.00,,,0.00,WUHU216WMR968SP,2013-03-19 19:08:00,
2013-03-19 12:13:00,50.7,18.6,29.88,SW,222,2.7,3.6,28,0.00,,,0.00,WUHU216WMR968SP,2013-03-19 19:13:00,
2013-03-19 12:18:00,50.4,18.3,29.88,SW,222,0.0,3.6,28,0.00,,,0.00,WUHU216WMR968SP,2013-03-19 19:18:00,
2013-03-19 12:23:00,50.2,18.1,29.88,SW,217,3.1,3.6,28,0.00,,,0.00,WUHU216WMR968SP,2013-03-19 19:23:00,
2013-03-19 12:28:00,50.0,18.0,29.88,SW,217,0.0,3.6,28,0.00,,,0.00,WUHU216WMR968SP,2013-03-19 19:28:00,
2013-03-19 12:33:00,50.2,18.9,29.88,SW,216,0.0,3.6,29,0.00,,,0.00,WUHU216WMR968SP,2013-03-19 19:33:00,
2013-03-19 12:38:00,50.2,18.1,29.88,SW,216,0.0,0.0,28,0.00,,,0.00,WUHU216WMR968SP,2013-03-19 19:38:00,
2013-03-19 12:43:00,50.0,18.0,29.88,SW,234,2.2,3.6,28,0.00,,,0.00,WUHU216WMR968SP,2013-03-19 19:43:00,
2013-03-19 12:48:00,50.2,18.1,29.85,WNW,291,4.0,4.9,28,0.00,,,0.00,WUHU216WMR968SP,2013-03-19 19:48:00,
2013-03-19 12:53:00,50.4,18.3,29.85,West,268,0.0,4.9,28,0.00,,,0.00,WUHU216WMR968SP,2013-03-19 19:53:00,
2013-03-19 12:58:00,50.4,18.3,29.85,West,269,0.0,3.6,28,0.00,,,0.00,WUHU216WMR968SP,2013-03-19 19:58:00,
2013-03-19 13:03:00,50.4,19.1,29.85,West,269,0.0,3.6,29,0.00,,,0.00,WUHU216WMR968SP,2013-03-19 20:03:00,
2013-03-19 13:08:00,50.4,19.1,29.85,West,268,0.0,0.0,29,0.00,,,0.00,WUHU216WMR968SP,2013-03-19 20:08:00,
2013-03-19 13:13:00,50.2,18.9,29.85,West,268,0.0,0.0,29,0.00,,,0.00,WUHU216WMR968SP,2013-03-19 20:13:00,
2013-03-19 13:18:00,50.2,18.9,29.85,West,268,0.0,0.0,29,0.00,,,0.00,WUHU216WMR968SP,2013-03-19 20:18:00,
2013-03-19 13:23:00,50.2,18.9,29.85,West,269,0.0,0.0,29,0.00,,,0.00,WUHU216WMR968SP,2013-03-19 20:23:00,
2013-03-19 13:28:00,50.2,19.7,29.85,West,269,0.0,0.0,30,0.00,,,0.00,WUHU216WMR968SP,2013-03-19 20:28:00,
2013-03-19 13:33:00,50.5,20.0,29.85,West,268,0.0,0.0,30,0.00,,,0.00,WUHU216WMR968SP,2013-03-19 20:33:00,
2013-03-19 13:38:00,50.4,20.7,29.85,West,268,0.0,0.0,31,0.00,,,0.00,WUHU216WMR968SP,2013-03-19 20:38:00,
2013-03-19 13:43:00,50.5,21.5,29.85,West,268,0.0,0.0,32,0.00,,,0.00,WUHU216WMR968SP,2013-03-19 20:43:00,
2013-03-19 13:48:00,50.4,20.7,29.82,West,269,0.0,0.0,31,0.00,,,0.00,WUHU216WMR968SP,2013-03-19 20:48:00,
2013-03-19 13:53:00,50.5,20.7,29.82,West,269,0.0,0.0,31,0.00,,,0.00,WUHU216WMR968SP,2013-03-19 20:53:00,
2013-03-19 13:58:00,50.7,21.7,29.82,West,269,0.0,3.1,32,0.00,,,0.00,WUHU216WMR968SP,2013-03-19 20:58:00,
2013-03-19 14:03:00,50.9,20.3,29.82,West,270,2.7,5.4,30,0.00,,,0.00,WUHU216WMR968SP,2013-03-19 21:03:00,
2013-03-19 14:08:00,50.9,20.3,29.82,West,277,2.2,5.4,30,0.00,,,0.00,WUHU216WMR968SP,2013-03-19 21:08:00,
2013-03-19 14:13:00,51.3,21.4,29.82,West,277,2.2,4.9,31,0.00,,,0.00,WUHU216WMR968SP,2013-03-19 21:13:00,
2013-03-19 14:18:00,51.4,20.8,29.79,West,277,0.0,2.7,30,0.00,,,0.00,WUHU216WMR968SP,2013-03-19 21:18:00,
2013-03-19 14:23:00,51.8,21.9,29.79,West,276,0.0,2.7,31,0.00,,,0.00,WUHU216WMR968SP,2013-03-19 21:23:00,
2013-03-19 14:28:00,52.2,21.5,29.79,West,276,0.0,0.0,30,0.00,,,0.00,WUHU216WMR968SP,2013-03-19 21:28:00,
2013-03-19 14:33:00,52.3,21.5,29.79,West,277,0.0,0.0,30,0.00,,,0.00,WUHU216WMR968SP,2013-03-19 21:33:00,
2013-03-19 14:38:00,52.5,20.9,29.79,West,276,0.0,0.0,29,0.00,,,0.00,WUHU216WMR968SP,2013-03-19 21:38:00,
2013-03-19 14:43:00,52.5,20.9,29.79,West,277,0.0,0.0,29,0.00,,,0.00,WUHU216WMR968SP,2013-03-19 21:43:00,
2013-03-19 14:48:00,52.7,21.1,29.79,West,277,0.0,3.6,29,0.00,,,0.00,WUHU216WMR968SP,2013-03-19 21:48:00,
2013-03-19 14:53:00,52.5,20.9,29.79,WNW,293,0.0,4.5,29,0.00,,,0.00,WUHU216WMR968SP,2013-03-19 21:53:00,
2013-03-19 14:58:00,52.7,21.1,29.79,NW,305,2.2,4.5,29,0.00,,,0.00,WUHU216WMR968SP,2013-03-19 21:58:00,
2013-03-19 15:03:00,52.9,21.3,29.79,WSW,250,0.0,4.0,29,0.00,,,0.00,WUHU216WMR968SP,2013-03-19 22:03:00,
2013-03-19 15:08:00,52.9,21.3,29.79,WSW,251,0.0,3.1,29,0.00,,,0.00,WUHU216WMR968SP,2013-03-19 22:08:00,
2013-03-19 15:13:00,52.9,21.3,29.79,WSW,251,0.0,2.7,29,0.00,,,0.00,WUHU216WMR968SP,2013-03-19 22:13:00,
2013-03-19 15:18:00,53.1,21.4,29.76,WSW,251,0.0,3.1,29,0.00,,,0.00,WUHU216WMR968SP,2013-03-19 22:18:00,
2013-03-19 15:24:00,53.2,21.5,29.76,WSW,251,0.0,3.1,29,0.00,,,0.00,WUHU216WMR968SP,2013-03-19 22:24:00,
2013-03-19 15:29:00,53.2,21.5,29.76,WSW,251,0.0,0.0,29,0.00,,,0.00,WUHU216WMR968SP,2013-03-19 22:29:00,
2013-03-19 15:34:00,53.1,22.2,29.76,WSW,251,0.0,0.0,30,0.00,,,0.00,WUHU216WMR968SP,2013-03-19 22:34:00,
2013-03-19 15:39:00,52.9,22.1,29.76,WSW,258,2.2,3.1,30,0.00,,,0.00,WUHU216WMR968SP,2013-03-19 22:39:00,
2013-03-19 15:44:00,52.7,23.4,29.76,SW,228,2.2,3.1,32,0.00,,,0.00,WUHU216WMR968SP,2013-03-19 22:44:00,
2013-03-19 15:49:00,52.5,23.2,29.76,NW,320,0.0,4.0,32,0.00,,,0.00,WUHU216WMR968SP,2013-03-19 22:49:00,
2013-03-19 15:54:00,52.3,24.5,29.76,NW,319,0.0,4.0,34,0.00,,,0.00,WUHU216WMR968SP,2013-03-19 22:54:00,
2013-03-19 15:59:00,52.2,25.8,29.76,NW,319,0.0,0.0,36,0.00,,,0.00,WUHU216WMR968SP,2013-03-19 22:59:00,
2013-03-19 16:04:00,51.8,25.5,29.76,NW,319,0.0,0.0,36,0.00,,,0.00,WUHU216WMR968SP,2013-03-19 23:04:00,
2013-03-19 16:09:00,51.3,26.3,29.76,NW,320,0.0,0.0,38,0.00,,,0.00,WUHU216WMR968SP,2013-03-19 23:09:00,
2013-03-19 16:14:00,50.9,26.6,29.76,NW,319,2.2,3.1,39,0.00,,,0.00,WUHU216WMR968SP,2013-03-19 23:14:00,
2013-03-19 16:19:00,50.4,26.2,29.76,WSW,246,3.6,5.4,39,0.00,,,0.00,WUHU216WMR968SP,2013-03-19 23:19:00,
2013-03-19 16:24:00,50.0,26.4,29.76,West,263,0.0,5.4,40,0.00,,,0.00,WUHU216WMR968SP,2013-03-19 23:24:00,
2013-03-19 16:29:00,49.8,27.5,29.76,SW,229,0.0,4.0,42,0.00,,,0.00,WUHU216WMR968SP,2013-03-19 23:29:00,
2013-03-19 16:34:00,49.5,28.4,29.76,SW,230,0.0,3.1,44,0.00,,,0.00,WUHU216WMR968SP,2013-03-19 23:34:00,
2013-03-19 16:39:00,49.3,28.2,29.76,SW,230,2.7,3.6,44,0.00,,,0.00,WUHU216WMR968SP,2013-03-19 23:39:00,
2013-03-19 16:44:00,48.9,27.8,29.76,SW,230,2.7,3.6,44,0.00,,,0.00,WUHU216WMR968SP,2013-03-19 23:44:00,
2013-03-19 16:49:00,48.7,28.7,29.76,SW,214,0.0,5.4,46,0.00,,,0.00,WUHU216WMR968SP,2013-03-19 23:49:00,
2013-03-19 16:54:00,48.2,28.8,29.76,SW,234,2.7,5.4,47,0.00,,,0.00,WUHU216WMR968SP,2013-03-19 23:54:00,
2013-03-19 16:59:00,47.8,29.0,29.76,SW,233,2.7,4.0,48,0.00,,,0.00,WUHU216WMR968SP,2013-03-19 23:59:00,
2013-03-19 17:04:00,47.7,29.4,29.76,SW,232,0.0,4.0,49,0.00,,,0.00,WUHU216WMR968SP,2013-03-20 00:04:00,
2013-03-19 17:09:00,47.5,29.2,29.76,SW,232,0.0,3.1,49,0.00,,,0.00,WUHU216WMR968SP,2013-03-20 00:09:00,
2013-03-19 17:14:00,47.3,30.1,29.76,SW,232,0.0,2.7,51,0.00,,,0.00,WUHU216WMR968SP,2013-03-20 00:14:00,
2013-03-19 17:19:00,47.3,32.0,29.76,SW,232,0.0,2.7,53,0.00,,,0.00,WUHU216WMR968SP,2013-03-20 00:19:00,
2013-03-19 17:24:00,47.1,31.3,29.76,SW,232,0.0,2.7,54,0.00,,,0.00,WUHU216WMR968SP,2013-03-20 00:24:00,
2013-03-19 17:29:00,47.1,31.3,29.76,SW,236,0.0,2.2,54,0.00,,,0.00,WUHU216WMR968SP,2013-03-20 00:29:00,
2013-03-19 17:34:00,47.1,31.3,29.76,SW,236,0.0,2.2,54,0.00,,,0.00,WUHU216WMR968SP,2013-03-20 00:34:00,
2013-03-19 17:39:00,47.1,31.3,29.76,WSW,237,0.0,0.0,54,0.04,,,0.04,WUHU216WMR968SP,2013-03-20 00:39:00,
2013-03-19 17:44:00,47.1,31.3,29.76,SW,236,0.0,0.0,54,0.04,,,0.04,WUHU216WMR968SP,2013-03-20 00:44:00,
2013-03-19 17:49:00,47.1,31.3,29.73,SW,236,0.0,0.0,54,0.04,,,0.04,WUHU216WMR968SP,2013-03-20 00:49:00,
2013-03-19 17:54:00,47.1,31.3,29.73,WSW,237,0.0,0.0,54,0.04,,,0.04,WUHU216WMR968SP,2013-03-20 00:54:00,
2013-03-19 17:59:00,47.1,32.0,29.73,SW,236,0.0,0.0,55,0.04,,,0.04,WUHU216WMR968SP,2013-03-20 00:59:00,
2013-03-19 18:04:00,47.1,32.0,29.73,SW,236,0.0,0.0,55,0.04,,,0.04,WUHU216WMR968SP,2013-03-20 01:04:00,
2013-03-19 18:09:00,47.1,32.0,29.73,SW,236,0.0,0.0,56,0.04,,,0.04,WUHU216WMR968SP,2013-03-20 01:09:00,
2013-03-19 18:14:00,47.1,32.0,29.73,SW,236,0.0,0.0,56,0.04,,,0.04,WUHU216WMR968SP,2013-03-20 01:14:00,
2013-03-19 18:19:00,47.1,32.0,29.70,SW,236,0.0,0.0,57,0.04,,,0.04,WUHU216WMR968SP,2013-03-20 01:19:00,
2013-03-19 18:24:00,47.1,33.8,29.70,SW,236,0.0,0.0,59,0.04,,,0.04,WUHU216WMR968SP,2013-03-20 01:24:00,
2013-03-19 18:29:00,47.1,33.8,29.70,SW,236,0.0,0.0,60,0.04,,,0.04,WUHU216WMR968SP,2013-03-20 01:29:00,
2013-03-19 18:34:00,47.3,35.6,29.70,SW,236,0.0,0.0,62,0.04,,,0.04,WUHU216WMR968SP,2013-03-20 01:34:00,
2013-03-19 18:39:00,47.3,35.6,29.70,SW,236,0.0,0.0,62,0.00,,,0.04,WUHU216WMR968SP,2013-03-20 01:39:00,
2013-03-19 18:44:00,47.3,37.4,29.70,SW,236,0.0,0.0,64,0.00,,,0.04,WUHU216WMR968SP,2013-03-20 01:44:00,
2013-03-19 18:49:00,47.5,37.4,29.68,WSW,237,0.0,0.0,66,0.00,,,0.04,WUHU216WMR968SP,2013-03-20 01:49:00,
2013-03-19 18:54:00,47.3,37.4,29.68,SW,236,0.0,0.0,67,0.04,,,0.08,WUHU216WMR968SP,2013-03-20 01:54:00,
2013-03-19 18:59:00,47.1,35.6,29.68,SW,236,0.0,0.0,67,0.04,,,0.08,WUHU216WMR968SP,2013-03-20 01:59:00,
2013-03-19 19:04:00,47.1,37.4,29.68,SW,236,0.0,0.0,69,0.04,,,0.08,WUHU216WMR968SP,2013-03-20 02:04:00,
2013-03-19 19:09:00,46.9,37.4,29.68,WSW,237,0.0,0.0,69,0.04,,,0.08,WUHU216WMR968SP,2013-03-20 02:09:00,
2013-03-19 19:14:00,47.1,37.4,29.68,SW,236,0.0,0.0,69,0.04,,,0.08,WUHU216WMR968SP,2013-03-20 02:14:00,
2013-03-19 19:19:00,47.3,39.2,29.68,SW,236,0.0,0.0,69,0.04,,,0.08,WUHU216WMR968SP,2013-03-20 02:19:00,
2013-03-19 19:24:00,47.3,39.2,29.68,SW,236,0.0,0.0,70,0.04,,,0.08,WUHU216WMR968SP,2013-03-20 02:24:00,
2013-03-19 19:29:00,47.5,39.2,29.68,SW,236,0.0,0.0,70,0.04,,,0.08,WUHU216WMR968SP,2013-03-20 02:29:00,
2013-03-19 19:34:00,47.5,39.2,29.65,SW,236,0.0,0.0,71,0.04,,,0.08,WUHU216WMR968SP,2013-03-20 02:34:00,
2013-03-19 19:39:00,47.5,39.2,29.65,SW,236,0.0,0.0,72,0.04,,,0.08,WUHU216WMR968SP,2013-03-20 02:39:00,
2013-03-19 19:44:00,47.7,39.2,29.65,SW,236,0.0,0.0,72,0.04,,,0.08,WUHU216WMR968SP,2013-03-20 02:44:00,
2013-03-19 19:49:00,47.7,39.2,29.65,SW,236,0.0,0.0,72,0.04,,,0.08,WUHU216WMR968SP,2013-03-20 02:49:00,
2013-03-19 19:54:00,47.8,39.2,29.65,SW,236,0.0,0.0,73,0.00,,,0.08,WUHU216WMR968SP,2013-03-20 02:54:00,
2013-03-19 19:59:00,47.8,39.2,29.65,SW,236,0.0,0.0,73,0.00,,,0.08,WUHU216WMR968SP,2013-03-20 02:59:00,
2013-03-19 20:04:00,48.0,39.2,29.65,SW,236,0.0,0.0,73,0.00,,,0.08,WUHU216WMR968SP,2013-03-20 03:04:00,
2013-03-19 20:09:00,48.0,39.2,29.65,SW,236,0.0,0.0,73,0.00,,,0.08,WUHU216WMR968SP,2013-03-20 03:09:00,
2013-03-19 20:14:00,48.0,41.0,29.65,SW,236,0.0,0.0,74,0.00,,,0.08,WUHU216WMR968SP,2013-03-20 03:14:00,
2013-03-19 20:19:00,48.2,41.0,29.65,SW,236,0.0,0.0,74,0.00,,,0.08,WUHU216WMR968SP,2013-03-20 03:19:00,
2013-03-19 20:24:00,48.2,41.0,29.65,SW,236,0.0,0.0,74,0.00,,,0.08,WUHU216WMR968SP,2013-03-20 03:24:00,
2013-03-19 20:29:00,48.6,41.0,29.65,East,90,0.0,3.6,74,0.00,,,0.08,WUHU216WMR968SP,2013-03-20 03:29:00,
2013-03-19 20:34:00,48.6,41.0,29.65,East,90,0.0,3.6,74,0.00,,,0.08,WUHU216WMR968SP,2013-03-20 03:34:00,
2013-03-19 20:39:00,48.6,41.0,29.65,East,90,0.0,0.0,74,0.04,,,0.12,WUHU216WMR968SP,2013-03-20 03:39:00,
2013-03-19 20:44:00,48.7,41.0,29.65,ENE,63,0.0,3.6,75,0.04,,,0.12,WUHU216WMR968SP,2013-03-20 03:44:00,
2013-03-19 20:49:00,48.7,41.0,29.65,ENE,63,0.0,3.6,75,0.04,,,0.12,WUHU216WMR968SP,2013-03-20 03:49:00,
2013-03-19 20:54:00,48.9,41.0,29.65,ENE,63,0.0,0.0,75,0.08,,,0.16,WUHU216WMR968SP,2013-03-20 03:54:00,
2013-03-19 20:59:00,48.9,41.0,29.65,ENE,63,0.0,0.0,75,0.08,,,0.16,WUHU216WMR968SP,2013-03-20 03:59:00,
2013-03-19 21:00:00,48.9,41.0,29.65,ENE,63,0.0,0.0,75,0.08,,,0.16,WUHU216WMR968SP,2013-03-20 04:00:00,
2013-03-19 21:05:00,48.9,41.0,29.65,ENE,63,0.0,0.0,75,0.08,,,0.16,WUHU216WMR968SP,2013-03-20 04:05:00,
2013-03-19 21:10:00,49.1,42.8,29.65,ENE,63,0.0,0.0,76,0.08,,,0.16,WUHU216WMR968SP,2013-03-20 04:10:00,
2013-03-19 21:15:00,49.1,42.8,29.65,ENE,63,0.0,0.0,76,0.12,,,0.20,WUHU216WMR968SP,2013-03-20 04:15:00,
2013-03-19 21:20:00,49.1,42.8,29.65,ENE,63,0.0,0.0,76,0.12,,,0.20,WUHU216WMR968SP,2013-03-20 04:20:00,
2013-03-19 21:25:00,49.1,42.8,29.65,ENE,63,0.0,0.0,76,0.12,,,0.20,WUHU216WMR968SP,2013-03-20 04:25:00,
2013-03-19 21:30:00,48.9,41.0,29.65,ENE,63,0.0,0.0,76,0.12,,,0.20,WUHU216WMR968SP,2013-03-20 04:30:00,
2013-03-19 21:35:00,49.1,42.8,29.62,ENE,63,0.0,0.0,76,0.12,,,0.24,WUHU216WMR968SP,2013-03-20 04:35:00,
2013-03-19 21:40:00,49.1,42.8,29.62,ENE,63,0.0,0.0,76,0.12,,,0.24,WUHU216WMR968SP,2013-03-20 04:40:00,
2013-03-19 21:45:00,49.1,42.8,29.62,ENE,63,0.0,0.0,76,0.12,,,0.24,WUHU216WMR968SP,2013-03-20 04:45:00,
2013-03-19 21:50:00,49.1,42.8,29.62,ENE,63,0.0,2.2,76,0.12,,,0.24,WUHU216WMR968SP,2013-03-20 04:50:00,
2013-03-19 21:55:00,49.3,42.8,29.62,NE,35,0.0,3.1,76,0.08,,,0.24,WUHU216WMR968SP,2013-03-20 04:55:00,
2013-03-19 22:00:00,49.3,42.8,29.62,SE,126,0.0,3.1,76,0.08,,,0.24,WUHU216WMR968SP,2013-03-20 05:00:00,
2013-03-19 22:05:00,49.3,42.8,29.62,SE,126,0.0,3.1,76,0.08,,,0.24,WUHU216WMR968SP,2013-03-20 05:05:00,
2013-03-19 22:10:00,49.5,42.8,29.62,SE,126,0.0,2.7,77,0.12,,,0.28,WUHU216WMR968SP,2013-03-20 05:10:00,
2013-03-19 22:15:00,49.5,42.8,29.62,SE,126,0.0,2.7,77,0.08,,,0.28,WUHU216WMR968SP,2013-03-20 05:15:00,
2013-03-19 22:20:00,49.5,42.8,29.62,SE,126,2.2,3.6,77,0.08,,,0.28,WUHU216WMR968SP,2013-03-20 05:20:00,
2013-03-19 22:25:00,49.5,42.8,29.62,WNW,298,0.0,4.0,77,0.08,,,0.28,WUHU216WMR968SP,2013-03-20 05:25:00,
2013-03-19 22:30:00,49.6,42.8,29.62,WNW,298,0.0,4.0,78,0.08,,,0.28,WUHU216WMR968SP,2013-03-20 05:30:00,
2013-03-19 22:35:00,49.6,42.8,29.62,WNW,302,0.0,2.7,78,0.04,,,0.28,WUHU216WMR968SP,2013-03-20 05:35:00,
2013-03-19 22:40:00,49.6,42.8,29.62,WNW,302,0.0,0.0,78,0.04,,,0.28,WUHU216WMR968SP,2013-03-20 05:40:00,
2013-03-19 22:45:00,49.6,42.8,29.62,WNW,302,0.0,0.0,78,0.04,,,0.28,WUHU216WMR968SP,2013-03-20 05:45:00,
2013-03-19 22:50:00,49.5,42.8,29.62,WNW,302,0.0,0.0,78,0.04,,,0.28,WUHU216WMR968SP,2013-03-20 05:50:00,
2013-03-19 22:55:00,49.5,42.8,29.62,WNW,302,0.0,0.0,78,0.04,,,0.28,WUHU216WMR968SP,2013-03-20 05:55:00,
2013-03-19 23:00:00,49.5,42.8,29.62,WNW,302,0.0,0.0,78,0.04,,,0.28,WUHU216WMR968SP,2013-03-20 06:00:00,
2013-03-19 23:05:00,49.5,42.8,29.59,WNW,302,0.0,0.0,78,0.04,,,0.28,WUHU216WMR968SP,2013-03-20 06:05:00,
2013-03-19 23:10:00,49.5,42.8,29.59,WNW,302,0.0,0.0,78,0.00,,,0.28,WUHU216WMR968SP,2013-03-20 06:10:00,
2013-03-19 23:15:00,49.5,42.8,29.59,WNW,302,0.0,0.0,78,0.00,,,0.28,WUHU216WMR968SP,2013-03-20 06:15:00,
2013-03-19 23:20:00,49.5,42.8,29.62,WNW,302,0.0,0.0,78,0.00,,,0.28,WUHU216WMR968SP,2013-03-20 06:20:00,
2013-03-19 23:25:00,49.5,42.8,29.62,WNW,302,0.0,0.0,78,0.04,,,0.32,WUHU216WMR968SP,2013-03-20 06:25:00,
2013-03-19 23:30:00,48.9,41.0,29.62,WNW,302,0.0,0.0,78,0.04,,,0.32,WUHU216WMR968SP,2013-03-20 06:30:00,
2013-03-19 23:35:00,48.9,41.0,29.62,WNW,302,0.0,0.0,78,0.04,,,0.32,WUHU216WMR968SP,2013-03-20 06:35:00,
2013-03-19 23:40:00,49.1,42.8,29.62,WNW,302,0.0,0.0,78,0.08,,,0.36,WUHU216WMR968SP,2013-03-20 06:40:00,
2013-03-19 23:45:00,49.1,42.8,29.62,WNW,302,0.0,0.0,78,0.08,,,0.36,WUHU216WMR968SP,2013-03-20 06:45:00,
2013-03-19 23:50:00,49.1,42.8,29.62,ENE,62,0.0,0.0,78,0.08,,,0.36,WUHU216WMR968SP,2013-03-20 06:50:00,
2013-03-19 23:55:00,49.1,42.8,29.62,East,85,0.0,3.6,78,0.08,,,0.36,WUHU216WMR968SP,2013-03-20 06:55:00,